WetterOnline ( http://www.wetteronline.de )

Wetter aktuell Höxter

Aktuelles Wetter: Lügde-Paenbruch (260m)

6-stündlich | Neueste Meldungen
Ortszeit Temperatur Wetter
Fr, 16.11. 1:00 2.4° C bewölkt
Do, 15.11. 19:00 2.7° C wolkenlos
Do, 15.11. 13:00 4.2° C bedeckt
Do, 15.11. 7:00 4.0° C bedeckt
Do, 15.11. 1:00 5.9° C bedeckt
Mi, 14.11. 19:00 6.6° C bedeckt
Mi, 14.11. 13:00 9.9° C wolkig
Mi, 14.11. 7:00 7.4° C bedeckt
Ortszeit Temperatur Wetter
Fr, 16.11. 1:30 2.5° C bewölkt
Fr, 16.11. 1:20 2.5° C bewölkt
Fr, 16.11. 1:10 2.5° C bewölkt
Fr, 16.11. 1:00 2.4° C bewölkt
Fr, 16.11. 0:40 2.4° C bedeckt
Fr, 16.11. 0:30 2.4° C wolkig
Fr, 16.11. 0:00 2.5° C wolkig
Do, 15.11. 23:30 2.9° C wolkig
Do, 15.11. 23:00 2.8° C wolkig
Do, 15.11. 22:30 2.9° C wolkig
Ortszeit Relative Feuchte Sichtweite
Fr, 16.11. 1:00 99% 3.2 km
Do, 15.11. 19:00 96% 8 km
Do, 15.11. 13:00 93% 7 km
Do, 15.11. 7:00 97% 4.7 km
Do, 15.11. 1:00 94% 7 km
Mi, 14.11. 19:00 90% 14 km
Mi, 14.11. 13:00 81% 17 km
Mi, 14.11. 7:00 90% 25 km
Ortszeit Relative Feuchte Sichtweite
Fr, 16.11. 1:30 99% 2.4 km
Fr, 16.11. 1:20 99% -
Fr, 16.11. 1:10 99% -
Fr, 16.11. 1:00 99% 3.2 km
Fr, 16.11. 0:40 99% -
Fr, 16.11. 0:30 99% 2.8 km
Fr, 16.11. 0:00 99% 3.7 km
Do, 15.11. 23:30 97% 4.8 km
Do, 15.11. 23:00 98% 3.9 km
Do, 15.11. 22:30 98% 4.2 km
Ortszeit Niederschlagsmenge Niederschlagsart
Fr, 16.11. 1:00 0.0 l/m2 in 6 Std. -
Do, 15.11. 19:00 0.0 l/m2 in 12 Std. -
Do, 15.11. 13:00 0.0 l/m2 in 6 Std. -
Do, 15.11. 7:00 0.0 l/m2 in 12 Std. -
Do, 15.11. 1:00 0.0 l/m2 in 6 Std. -
Mi, 14.11. 19:00 0.0 l/m2 in 12 Std. -
Mi, 14.11. 13:00 0.0 l/m2 in 6 Std. -
Mi, 14.11. 7:00 0.0 l/m2 in 12 Std. -
Ortszeit Niederschlagsmenge Niederschlagsart
Fr, 16.11. 1:30 0.0 l/m2 in 1 Std. -
Fr, 16.11. 1:20 keine Meldung -
Fr, 16.11. 1:10 keine Meldung -
Fr, 16.11. 1:00 0.0 l/m2 in 1 Std. -
Fr, 16.11. 0:40 keine Meldung -
Fr, 16.11. 0:30 0.0 l/m2 in 1 Std. -
Fr, 16.11. 0:00 0.0 l/m2 in 1 Std. -
Do, 15.11. 23:30 0.0 l/m2 in 1 Std. -
Do, 15.11. 23:00 0.0 l/m2 in 1 Std. -
Do, 15.11. 22:30 0.0 l/m2 in 1 Std. -
Ortszeit Stärke Spitze Richtung
km/h Bft. km/h Grad Sektor
Fr, 16.11. 1:00 13 3 24 170° S
Do, 15.11. 19:00 15 3 33 180° S
Do, 15.11. 13:00 17 3 30 170° S
Do, 15.11. 7:00 19 3 28 170° S
Do, 15.11. 1:00 14 3 25 170° S
Mi, 14.11. 19:00 14 3 32 180° S
Mi, 14.11. 13:00 11 2 18 170° S
Mi, 14.11. 7:00 9 2 22 160° S
Ortszeit Stärke Spitze Richtung
km/h Bft. km/h Grad Sektor
Fr, 16.11. 1:30 13 3 19 170° S
Fr, 16.11. 1:20 13 3 - 170° S
Fr, 16.11. 1:10 13 3 - 170° S
Fr, 16.11. 1:00 13 3 19 170° S
Fr, 16.11. 0:40 11 2 - 180° S
Fr, 16.11. 0:30 11 2 18 180° S
Fr, 16.11. 0:00 11 2 22 170° S
Do, 15.11. 23:30 13 3 22 180° S
Do, 15.11. 23:00 17 3 24 170° S
Do, 15.11. 22:30 17 3 24 180° S
Ortszeit Untergrenze Bedeckung Gattung
total tief tief mittel hoch
Fr, 16.11. 1:00 60 m 7/8 7/8 - - -
Do, 15.11. 19:00 - 0/8 0/8 - - -
Do, 15.11. 13:00 150 m 8/8 8/8 - - -
Do, 15.11. 7:00 120 m 8/8 8/8 - - -
Do, 15.11. 1:00 180 m 8/8 8/8 - - -
Mi, 14.11. 19:00 270 m 8/8 8/8 - - -
Mi, 14.11. 13:00 10500 m 7/8 0/8 - - -
Mi, 14.11. 7:00 450 m 8/8 8/8 - - -
Ortszeit Bedeckungsgrad in Achtel und Wolkenuntergrenze
Fr, 16.11. 1:30 7(60m)
Fr, 16.11. 1:20 7(60m)
Fr, 16.11. 1:10 7(60m)
Fr, 16.11. 1:00 5(60m) 7(510m) 7(930m)
Fr, 16.11. 0:40 9 9 9
Fr, 16.11. 0:30 4(60m) 5(1050m)
Fr, 16.11. 0:00 4(120m) 6(1350m)
Do, 15.11. 23:30 6(150m) 7(360m)
Do, 15.11. 23:00 1(90m) 4(2100m) 6(10500m)
Do, 15.11. 22:30 1(90m) 7(12000m)
Ortszeit Luftdruck NN (hPa) Tendenz (hPa in 3 Std.)
Fr, 16.11. 1:00 1029 + 0,4
Do, 15.11. 19:00 1028 + 0,2
Do, 15.11. 13:00 1028 - 0,1
Do, 15.11. 7:00 1028 - 0,2
Do, 15.11. 1:00 1028 - 0,4
Mi, 14.11. 19:00 1029 - 0,2
Mi, 14.11. 13:00 1030 - 0,2
Mi, 14.11. 7:00 1029 - 0,5
Ortszeit Luftdruck NN (hPa) Tendenz (hPa in 3 Std.)
Fr, 16.11. 1:30 1029 + 0,4
Fr, 16.11. 1:20 1029 keine Meldung
Fr, 16.11. 1:10 1029 keine Meldung
Fr, 16.11. 1:00 1029 + 0,4
Fr, 16.11. 0:40 1029 keine Meldung
Fr, 16.11. 0:30 1029 + 0,6
Fr, 16.11. 0:00 1029 + 0,6
Do, 15.11. 23:30 1029 + 0,6
Do, 15.11. 23:00 1029 + 0,7
Do, 15.11. 22:30 1029 + 0,5
Ortszeit Schneehöhe (cm)
Fr, 16.11. 1:00 -
Do, 15.11. 19:00 -
Do, 15.11. 13:00 -
Do, 15.11. 7:00 -
Do, 15.11. 1:00 -
Mi, 14.11. 19:00 -
Mi, 14.11. 13:00 -
Mi, 14.11. 7:00 -
Ortszeit Schneehöhe (cm)
Fr, 16.11. 1:30 -
Fr, 16.11. 1:20 -
Fr, 16.11. 1:10 -
Fr, 16.11. 1:00 -
Fr, 16.11. 0:40 -
Fr, 16.11. 0:30 -
Fr, 16.11. 0:00 -
Do, 15.11. 23:30 -
Do, 15.11. 23:00 -
Do, 15.11. 22:30 -
Link zu dieser Seite / Seite empfehlen

Das Wetter in ...